• In Belarus
  • List of Countries
  • For 7 days
  • Water Temperature
  • Satellite Maps
  • Weather Map
  • Weather Widgets
  • user-avatar
    Login

    Hourly Weather Tampa

    Today, 13 December, Thursday

    Time Temperature Precipitation Wind Pressure Humidity
    00:00 +14°C° 0 mm 4 mps 766 mmHg 71%
    01:00 +14°C° 0 mm 4 mps 766 mmHg 71%
    02:00 +14°C° 0 mm 4 mps 766 mmHg 71%
    03:00 +14°C° 0 mm 4 mps 765 mmHg 70%
    04:00 +14°C° 0 mm 4 mps 765 mmHg 70%
    05:00 +15°C° 0 mm 4 mps 765 mmHg 70%
    06:00 +15°C° 0 mm 4 mps 765 mmHg 71%
    07:00 +15°C° 0 mm 4 mps 765 mmHg 72%
    08:00 +16°C° 0 mm 5 mps 765 mmHg 70%
    09:00 +19°C° 0 mm 5 mps 766 mmHg 68%
    10:00 +20°C° 0 mm 5 mps 766 mmHg 66%
    11:00 +21°C° 0 mm 5 mps 765 mmHg 63%
    12:00 +22°C° 0 mm 5 mps 765 mmHg 60%
    13:00 +23°C° 0 mm 5 mps 765 mmHg 57%
    14:00 +23°C° 0 mm 5 mps 764 mmHg 58%
    15:00 +23°C° 0 mm 5 mps 764 mmHg 59%
    16:00 +25°C° 0 mm 5 mps 763 mmHg 60%
    17:00 +23°C° 0 mm 5 mps 763 mmHg 65%
    18:00 +22°C° 0 mm 5 mps 763 mmHg 70%
    19:00 +21°C° 0 mm 5 mps 763 mmHg 75%
    20:00 +21°C° 0 mm 5 mps 763 mmHg 75%
    21:00 +21°C° 0 mm 5 mps 763 mmHg 75%
    22:00 +21°C° 0 mm 5 mps 763 mmHg 75%
    23:00 +21°C° 0 mm 6 mps 763 mmHg 75%

    Tomorrow, 14 December, Friday

    Time Temperature Precipitation Wind Pressure Humidity
    00:00 +21°C° 0 mm 6 mps 763 mmHg 74%
    01:00 +21°C° 0 mm 6 mps 763 mmHg 74%
    02:00 +21°C° 0 mm 6 mps 762 mmHg 75%
    03:00 +21°C° 0 mm 7 mps 762 mmHg 77%
    04:00 +21°C° 0 mm 7 mps 762 mmHg 79%
    05:00 +21°C° 0 mm 7 mps 761 mmHg 81%
    06:00 +22°C° 0 mm 7 mps 761 mmHg 82%
    07:00 +22°C° 0 mm 7 mps 761 mmHg 84%
    08:00 +22°C° 0.8 mm 7 mps 762 mmHg 85%
    09:00 +23°C° 0.8 mm 7 mps 762 mmHg 85%
    10:00 +23°C° 0.8 mm 7 mps 763 mmHg 86%
    11:00 +24°C° 0.8 mm 7 mps 762 mmHg 83%
    12:00 +24°C° 0.8 mm 8 mps 762 mmHg 81%
    13:00 +26°C° 0.8 mm 8 mps 761 mmHg 79%
    14:00 +26°C° 3.6 mm 8 mps 761 mmHg 79%
    15:00 +26°C° 3.6 mm 8 mps 760 mmHg 79%
    16:00 +26°C° 3.6 mm 9 mps 760 mmHg 79%
    17:00 +24°C° 3 mm 7 mps 760 mmHg 82%
    18:00 +24°C° 3 mm 6 mps 761 mmHg 84%
    19:00 +23°C° 3 mm 5 mps 761 mmHg 86%
    20:00 +23°C° 0.7 mm 4 mps 761 mmHg 89%
    21:00 +22°C° 0.7 mm 3 mps 762 mmHg 91%
    22:00 +23°C° 0.7 mm 2 mps 762 mmHg 93%
    23:00 +23°C° 0.3 mm 2 mps 762 mmHg 93%

    Day after tomorrow, 15 December, Saturday

    Time Temperature Precipitation Wind Pressure Humidity
    00:00 +23°C° 0.3 mm 2 mps 762 mmHg 94%
    01:00 +21°C° 0.3 mm 2 mps 761 mmHg 94%
    02:00 +21°C° 0.1 mm 2 mps 761 mmHg 93%
    03:00 +21°C° 0.1 mm 2 mps 761 mmHg 93%
    04:00 +21°C° 0.1 mm 2 mps 761 mmHg 92%
    05:00 +21°C° 0.1 mm 2 mps 761 mmHg 91%
    06:00 +21°C° 0.1 mm 3 mps 761 mmHg 90%
    07:00 +21°C° 0.1 mm 3 mps 762 mmHg 89%
    08:00 +21°C° 0 mm 3 mps 762 mmHg 84%
    09:00 +22°C° 0 mm 4 mps 763 mmHg 78%
    10:00 +23°C° 0 mm 4 mps 763 mmHg 73%
    11:00 +23°C° 0 mm 5 mps 763 mmHg 69%
    12:00 +23°C° 0 mm 5 mps 763 mmHg 65%
    13:00 +24°C° 0 mm 6 mps 762 mmHg 62%
    14:00 +24°C° 0 mm 6 mps 762 mmHg 61%
    15:00 +23°C° 0 mm 6 mps 762 mmHg 61%
    16:00 +23°C° 0 mm 6 mps 762 mmHg 61%
    17:00 +22°C° 0 mm 5 mps 762 mmHg 65%
    18:00 +21°C° 0 mm 4 mps 763 mmHg 68%
    19:00 +21°C° 0 mm 4 mps 763 mmHg 72%
    20:00 +20°C° 0 mm 4 mps 764 mmHg 74%
    21:00 +20°C° 0 mm 4 mps 764 mmHg 76%
    22:00 +20°C° 0 mm 4 mps 764 mmHg 77%
    23:00 +19°C° 0 mm 4 mps 764 mmHg 77%

    16 December, Sunday

    Time Temperature Precipitation Wind Pressure Humidity
    00:00 +19°C° 0 mm 4 mps 764 mmHg 77%
    01:00 +19°C° 0 mm 4 mps 764 mmHg 76%
    02:00 +19°C° 0 mm 4 mps 764 mmHg 76%
    03:00 +18°C° 0 mm 4 mps 764 mmHg 76%
    04:00 +18°C° 0 mm 4 mps 764 mmHg 76%
    05:00 +18°C° 0 mm 3 mps 764 mmHg 77%
    06:00 +18°C° 0 mm 3 mps 765 mmHg 77%
    07:00 +17°C° 0 mm 3 mps 765 mmHg 78%
    08:00 +18°C° 0 mm 3 mps 765 mmHg 74%
    09:00 +19°C° 0 mm 3 mps 766 mmHg 70%
    10:00 +20°C° 0 mm 3 mps 766 mmHg 66%
    11:00 +20°C° 0 mm 3 mps 766 mmHg 66%
    12:00 +20°C° 0 mm 4 mps 765 mmHg 65%
    13:00 +20°C° 0 mm 4 mps 765 mmHg 65%
    14:00 +20°C° 0 mm 4 mps 764 mmHg 65%
    15:00 +20°C° 0 mm 4 mps 764 mmHg 65%
    16:00 +20°C° 0 mm 4 mps 763 mmHg 65%
    17:00 +20°C° 0 mm 4 mps 764 mmHg 67%
    18:00 +19°C° 0 mm 4 mps 764 mmHg 70%
    19:00 +18°C° 0 mm 4 mps 764 mmHg 72%
    20:00 +18°C° 0.1 mm 4 mps 765 mmHg 73%
    21:00 +18°C° 0.1 mm 4 mps 765 mmHg 74%
    22:00 +18°C° 0.1 mm 4 mps 765 mmHg 75%
    23:00 +18°C° 0.1 mm 4 mps 765 mmHg 75%

    17 December, Monday

    Time Temperature Precipitation Wind Pressure Humidity
    00:00 +17°C° 0.1 mm 4 mps 765 mmHg 75%
    01:00 +17°C° 0.1 mm 4 mps 765 mmHg 74%
    02:00 +15°C° 0 mm 4 mps 765 mmHg 75%
    03:00 +14°C° 0 mm 4 mps 765 mmHg 76%
    04:00 +14°C° 0 mm 4 mps 764 mmHg 77%
    05:00 +13°C° 0 mm 4 mps 765 mmHg 78%
    06:00 +13°C° 0 mm 4 mps 765 mmHg 78%
    07:00 +13°C° 0 mm 4 mps 765 mmHg 78%
    08:00 +14°C° 0 mm 4 mps 766 mmHg 75%
    09:00 +15°C° 0 mm 4 mps 766 mmHg 71%
    10:00 +17°C° 0 mm 4 mps 766 mmHg 68%
    11:00 +18°C° 0 mm 4 mps 765 mmHg 64%
    12:00 +19°C° 0 mm 5 mps 765 mmHg 60%
    13:00 +20°C° 0 mm 5 mps 764 mmHg 56%
    14:00 +19°C° 0 mm 5 mps 764 mmHg 56%
    15:00 +19°C° 0 mm 5 mps 764 mmHg 57%
    16:00 +19°C° 0 mm 6 mps 764 mmHg 57%
    17:00 +17°C° 0 mm 5 mps 764 mmHg 58%
    18:00 +17°C° 0 mm 5 mps 764 mmHg 59%
    19:00 +17°C° 0 mm 4 mps 764 mmHg 60%
    20:00 +17°C° 0 mm 4 mps 765 mmHg 60%
    21:00 +15°C° 0 mm 4 mps 765 mmHg 59%
    22:00 +15°C° 0 mm 4 mps 765 mmHg 58%
    23:00 +15°C° 0 mm 4 mps 765 mmHg 58%

    18 December, Tuesday

    Time Temperature Precipitation Wind Pressure Humidity
    00:00 +14°C° 0 mm 4 mps 765 mmHg 58%
    01:00 +14°C° 0 mm 4 mps 765 mmHg 58%
    02:00 +14°C° 0 mm 4 mps 765 mmHg 56%
    03:00 +13°C° 0 mm 4 mps 765 mmHg 55%
    04:00 +13°C° 0 mm 4 mps 765 mmHg 53%
    05:00 +12°C° 0 mm 4 mps 765 mmHg 54%
    06:00 +11°C° 0 mm 4 mps 765 mmHg 54%
    07:00 +11°C° 0 mm 4 mps 765 mmHg 55%
    08:00 +11°C° 0 mm 3 mps 766 mmHg 51%
    09:00 +12°C° 0 mm 3 mps 766 mmHg 48%
    10:00 +13°C° 0 mm 3 mps 766 mmHg 45%
    11:00 +16°C° 0 mm 2 mps 766 mmHg 41%
    12:00 +17°C° 0 mm 2 mps 766 mmHg 37%
    13:00 +19°C° 0 mm 2 mps 765 mmHg 33%
    14:00 +19°C° 0 mm 2 mps 765 mmHg 33%
    15:00 +20°C° 0 mm 2 mps 765 mmHg 33%
    16:00 +20°C° 0 mm 2 mps 764 mmHg 34%
    17:00 +19°C° 0 mm 2 mps 765 mmHg 38%
    18:00 +18°C° 0 mm 2 mps 765 mmHg 43%
    19:00 +17°C° 0 mm 2 mps 765 mmHg 47%
    20:00 +17°C° 0 mm 2 mps 766 mmHg 51%
    21:00 +16°C° 0 mm 2 mps 766 mmHg 55%
    22:00 +16°C° 0 mm 2 mps 766 mmHg 58%
    23:00 +15°C° 0 mm 2 mps 766 mmHg 63%
    Show more